User: anonymous   Login
Location: Unspecified
(0.0000°N, 0.0000°E)
Time: 21:46:18
(UTC+00:00)
Language:

GONETS M 05 - Orbit

View from above orbital plane
View from above orbital plane
View from above satellite
View from above satellite

Ground track
Ground track

The orbit data is extracted from the following two-line orbital elements,

1 39249U 13048A   17117.70660817 +.00000024 +00000-0 +10000-3 0  9995
2 39249 082.4794 263.9431 0015149 292.4651 067.4823 12.42890960164439
Epoch (UTC): 27 April 2017 16:57:30
Eccentricity: 0.0015149
inclination: 82.4794°
perigee height: 1482 km
apogee height: 1506 km
right ascension of ascending node: 263.9431°
argument of perigee: 292.4651°
revolutions per day: 12.42890960
mean anomaly at epoch: 67.4823°
orbit number at epoch: 16443

The dashed part of the orbit path shows where the satellite is in the earth's shadow,  

DLR